Location: Whitetail Observatory
(30.5740°N, 97.7628°W)
Time: 20:09:41
(UTC-05:00)

ISS - Visible Passes

Search period start: 01 October 2022 00:00
Search period end: 11 October 2022 00:00
Orbit: 416 x 420 km, 51.6° (Epoch: 01 October)

Date Brightness Start Highest point End Pass type
(mag) Time Alt. Az. Time Alt. Az. Time Alt. Az.
01 Oct -0.6 21:20:50 10° NNW 21:20:55 11° NNW 21:20:55 11° NNW visible
02 Oct -1.7 20:33:26 10° N 20:35:06 17° NNE 20:35:06 17° NNE visible
03 Oct -1.4 19:46:43 10° NNE 19:47:49 11° NNE 19:48:54 10° NE visible
03 Oct -0.9 21:21:34 10° NW 21:22:29 17° NW 21:22:29 17° NW visible
04 Oct -3.6 20:33:57 10° NW 20:37:09 54° NNE 20:37:09 54° NNE visible
05 Oct -2.7 19:46:40 10° NNW 19:49:41 29° NE 19:52:06 14° E visible
05 Oct -0.7 21:23:57 10° W 21:25:06 15° W 21:25:06 15° W visible
06 Oct -2.2 20:35:54 10° WNW 20:39:00 34° SW 20:40:23 23° S visible
07 Oct -3.5 19:48:24 10° NW 19:51:47 71° SW 19:55:08 10° SE visible
09 Oct -0.8 19:51:49 10° W 19:54:08 17° SW 19:56:26 10° S visible
